Погода в Певеке

Погода в Певеке : погода сейчас, прогноз погоды и архив. Всё, что Вы хотите узнать о погоде в Певеке!

Хотите узнать прогноз погоды в Певеке? Тогда Вам сюда: Погода в Певеке

Поиск расширенной информации на нашем сайте:

Другие новости

Новости СМИ2

Главная страница сайта

Новости сайта

02.10.2013

Напоминаем, что на нашем новом сайте вы можете получить высокодетализированные прогнозы погоды по пунктам России, СНГ и мира (включающие важные для авиации метеовеличины, такие как направление и скорость ветра, видимость, явления погоды, количество и форма облачности, нижняя и верхняя граница облачности), а также ознакомиться с разнообразными материалами по авиационной метеорологии и подборкой полезных ссылок на эту тему.

Сайт Метеоцентр.Азия посвящён разработке технологий оптимизации авиаметеорологического обслуживания, включая проектирование и перспективное создание нескольких автоматизированных авиаметеорологических систем:
- система выпуска высокодетальных прогностических карт явлений погоды для нижнего воздушного пространства по России и ближнему зарубежью;
- система верификации прогнозов TAF (выпускаемых синоптиками официальных АМСГ РФ и ближнего зарубежья) и AUTOTAF (выпускаемых сайтом Метеоцентр.Азия) - выявление ошибок, онлайн-сопоставление с фактической погодой METAR, автоматическое внесение коррективов в прогнозы при резком отклонении фактической погоды от прогноза, подсчёт оправдываемости прогнозов по элементам и в целом;
- система обработки, анализа и отображения авиаметеорологической информации для применения провайдерами метеорологической информации.

Рекомендуем: антигравийная пленка цена

Погода в Певеке - сегодня

Время (UTC), дата Ветер
(°,м/с) 
Видим.   Явления Облачность Т
(°С)
Тd
(°С)
f(%) Тe
(°С)
Pmin
(гПа)
dP
(гПа)
Po
(мм)
O2
(г/м3)
Тmin Tmax R s Состояние
почвы
03 20.03.17 170 (Ю) 6{15}  20000 м    ясно 
-8.9 -17 52 -14  1021.3  -0.2  765  320           
06 20.03.17 030 (СВ) 2{10}  20000 м    ясно 
-8.8 -17.9 48 -10  1020.7  -0.6  765  320           
09 20.03.17 130 (ЮВ) 2{07}  20000 м    ясно 
-11.1 -18.8 53 -13  1021.3  0.6  765  323    -8.3       
12 20.03.17 350 (С) 1{10}  20000 м    ясно 
-12.6 -19.8 55 -13  1020.4  -0.9  765  325           
15 20.03.17 170 (Ю) 7-11{12}  20000 м    ясно 
-9.1 -20.6 39 -15  1020.2  -0.2  765  320           
18 20.03.17 130 (ЮВ) 5-11{12}  20000 м    ясно 
-9.6 -20.4 41 -14  1019.8  -0.4  764  321           
21 20.03.17 340 (С) 3{11}  20000 м    ясно 
-11.7 -19 55 -15  1020.2  0.4  765  323  -14.2      18  неравномерный
мокрый или
старый снег
100% 
00 21.03.17 310 (СЗ) 2{12}  20000 м    3/0 верхняя 
[Ci sp]
-8.3 -15.7 55 -10  1020.2  765  319           
03 21.03.17 350 (С) 2{08}  20000 м    10/0 верхняя 
[Ci sp]
-8.3 -14.4 61 -10  1019.8  -0.4  764  319           
06 21.03.17 020 (С) 1{05}  20000 м    10/0 средняя, верхняя 
[Ac trans|Ci sp]
-10 -14.6 69 -10  1019.7  -0.1  764  321           
09 21.03.17 330 (СЗ) 2{10}  20000 м    10/0 средняя, верхняя 
[Ac trans|Ci sp]
-10.4 -15 69 -12  1019.8  0.1  764  322    -7.5       
12 21.03.17 330 (СЗ) 2{04}  20000 м    ясно 
-13.5 -16.3 79 -16  1019.4  -0.4  764  325           
15 21.03.17 360 (С) 2{03}  20000 м    ясно 
-12.7 -15.9 77 -15  1019.2  -0.2  764  324           
18 21.03.17 040 (СВ) 1{04}  20000 м    ясно 
-15.4 -17.8 82 -15  1018.9  -0.3  764  328           
21 21.03.17 350 (С) 1{03}  20000 м    10/0 верхняя 
[Ci sp]
-14.7 -17.1 82 -15  1019.1  0.2  764  327  -16.3      18  неравномерный
мокрый или
старый снег
100% 
00 22.03.17 360 (С) 3{04}  20000 м    ясно 
-9.8 -14.2 70 -13  1018.9  -0.2  764  320           
03 22.03.17 190 (Ю) 3{06}  20000 м    3/0 верхняя 
[Cc]
-6.1 -12.6 60 -9  1018.4  -0.5  763  316           
06 22.03.17 180 (Ю) 6{10}  20000 м    6/0 верхняя 
[Cc]
-7.9 -13.9 62 -13  1018.3  -0.1  763  318           
09 22.03.17 210 (ЮЗ) 6{09}  20000 м  снежные кристаллы  10/0 средняя 
[Ac As]
-7.7 -13 66 -13  1018.8  0.5  764  318    -6.1  0.0     
12 22.03.17 210 (ЮЗ) 6{09}  10 км  слаб. снег  10/0 средняя 
[As op]
-8 -12 73 -13  1018.9  0.1  764  318           
15 22.03.17 210 (ЮЗ) 7{09}  10 км  слаб. снег  10/0 средняя 
[As op]
-8.4 -11.1 81 -14  1018.5  -0.4  763  318           
18 22.03.17 210 (ЮЗ) 8{11}  10 км  слаб. снег  10/0 средняя 
[As op]
-8.1 -10.8 81 -14  1018.2  -0.3  763  318           
21 22.03.17 200 (Ю) 9-11{12}  2000 м  снег  10/0 средняя 
[As op]
-7.8 -9.4 88 -14  1018.3  0.1  763  318  -8.6    0.3  19  очень
неравномерный
сухой снег
(сугробы, заносы) 
00 23.03.17 210 (ЮЗ) 8-10{12}  4000 м  слаб. снег  10/0 средняя 
[As op]
-7.3 -10.3 79 -13  1018.4  0.1  763  317           
03 23.03.17 210 (ЮЗ) 7{11}  4000 м  слаб. снег  10/0 средняя 
[Ac As]
-6.9 -9.7 80 -12  1018.2  -0.2  763  316           
Время (UTC), дата Ветер
(°,м/с) 
Видим.   Явления Облачность Т
(°С)
Тd
(°С)
f(%) Тe
(°С)
Pmin
(гПа)
dP
(гПа)
Po
(мм)
O2
(г/м3)
Тmin Tmax R s Состояние
почвы

Для получения пояснительной информации подведите курсор к названию столбца.

ПОГОДА в Певеке - архив

Всё, что Вы хотите узнать о погоде в Певеке - удобно и подробно!

Выберите нужную дату (начиная с 1 января 2015* года) и нажмите кнопку "Найти".
Будут отображены архивные сводки погоды по пункту Певек, начиная с указанной даты.


Отображать данные в формате CSV (для использования в таблицах Excel)


Внимание! Наш архив погоды предназначен исключительно для личного некоммерческого использования в познавательных целях. Если Вам необходимы официальные справки о состоянии погоды (для производственных, юридических, коммерческих и т.п. целей), обращайтесь в органы Росгидромета.

*Примечание: данная дата относится к архиву по метеостанциям СССР (Россия, СНГ, Балтия).
Архив по метеостанциям Зарубежной Европы и Азии (кроме Китая) хранится 10 дней, по другим регионам земного шара (Китай, Африка, Америка, Австралия, Океания) - 1 день.

Певек - район местоположения метеостанции


Название, широта, долгота, высота метеостанции:
Певек 69.7°ш. 170.3°д. 6 м над ур. моря [Российская Федерация]

Дополнительная информация

В oтличие oт бoльшинства пoгoдных сайтoв мы публикуем пoдрoбную метеoинфoрмацию в детальнoм прoфессиoнальнoм фoрмате.

Характеристики температуры и влажнoсти вoздуха измеряются на высoте 2 м в тени вдали oт зданий и деревьев.
Скoрoсть ветра измеряется на высoте 10 м (на урoвне рoста челoвека скoрoсть ветра ниже в 1.5-2 раза). Если метеoстанция нахoдится в гoрoде или в лесу, тo скoрoсть ветра занижена на 2-4 м/с пo сравнению с oткрытым местoм. Скoрoсть ветра над акватoриями крупных рек и oзёр, а также на вершинах хoлмoв на 2-5 м/с выше, чем в oбычных услoвиях.
Атмoсфернoе давление в разных тoчках местнoсти мoжет значительнo oтличаться oт давления на метеoстанции, в зависимoсти oт услoвий рельефа (при пoдъёме на 10 м давление пoнижается примернo на 1 мм рт.ст.).